Flag for Germany Weather past 2 weeks in Ludwigsfelde, Brandenburg, Germany

Now
68 °F

Overcast.


Feels Like: 68 °F
Forecast: 70 / 83 °F
Wind: 3 mph from East

Location: Potsdam

Current Time: Aug 2, 2014 at 2:52:05 AM

Latest Report: Aug 2, 2014 at 2:00 AM


Visibility: 19 mi

Pressure: 29.90 "Hg

Humidity: 77%

Dew point: 60 °F

Location of LudwigsfeldeLocation

Historic Weather in Ludwigsfelde — Graph

°F

Ludwigsfelde temperature yesterday

Maximum temperature yesterday: 80 °F (at 3:00 PM)
Minimum temperature yesterday: 58 °F (at 6:00 AM)
Average temperature yesterday: 70 °F

Past Weeks' High & Low Weather Summary

 TemperatureHumidityPressure
High93 °F (Jul 20, 4:00 PM)99% (Jul 26, 3:00 AM)30.16 "Hg (Jul 26, 3:00 AM)
Low58 °F (Aug 1, 6:00 AM)24% (Jul 20, 4:00 PM)29.68 "Hg (Jul 29, 4:00 PM)
Average72 °F72%29.92 "Hg
* Reported Jul 18 1:00 AM — Aug 2 1:00 AM, Ludwigsfelde, Weather by CustomWeather, © 2014

Note: Actual official high and low records may vary slightly from our data, if they occured in-between our weather recording intervals... More about our weather records

Advertising

Ludwigsfelde weather history for previous 24 hours

 ConditionsComfort  
Time TempWeatherWind HumidityBarometerVisibility
1:00 AM
Aug 2
68 °FOvercast.3 mph79%29.90 "Hg22 mi
12:00 AM68 °FOvercast.3 mph78%29.90 "Hg22 mi
11:00 PM
Aug 1
68 °FOvercast.3 mph79%29.91 "Hg22 mi
10:00 PM69 °FOvercast.3 mph74%29.90 "Hg22 mi
9:00 PM70 °FOvercast.3 mph70%29.90 "Hg25 mi
8:00 PM74 °FOvercast.3 mph63%29.90 "Hg25 mi
7:00 PM76 °FOvercast.3 mph54%29.88 "Hg25 mi
6:00 PM79 °FPartly sunny.5 mph52%29.89 "Hg28 mi
5:00 PM78 °FPartly sunny.3 mph56%29.90 "Hg28 mi
4:00 PM77 °FOvercast.2 mph55%29.90 "Hg28 mi
3:00 PM80 °FOvercast.3 mph47%29.92 "Hg25 mi
2:00 PM78 °FPartly sunny.2 mph48%29.93 "Hg28 mi
1:00 PM77 °FPartly sunny.3 mph47%29.93 "Hg28 mi
12:00 PM76 °FPartly sunny.2 mph43%29.95 "Hg28 mi
11:00 AM75 °FPartly sunny.2 mph47%29.96 "Hg28 mi
10:00 AM73 °FPartly sunny.2 mph54%29.97 "Hg28 mi
9:00 AM70 °FPartly sunny.1 mph67%29.97 "Hg28 mi
8:00 AM63 °FScattered clouds.2 mph85%29.97 "Hg25 mi
7:00 AM60 °FSunny.1 mph92%29.97 "Hg18 mi
6:00 AM58 °FPassing clouds.1 mph94%29.97 "Hg19 mi
5:00 AM59 °FPassing clouds.2 mph94%29.97 "Hg19 mi
4:00 AM60 °FClear.1 mph77%29.97 "Hg25 mi
3:00 AM61 °FClear.1 mph85%29.98 "Hg22 mi
2:00 AM62 °FClear.2 mph77%29.98 "Hg25 mi
Weather by CustomWeather, © 2014

See weather overviewHow to use our weather pages